This is the latest recevied weather packets stored in our database for station/object KM4KMS. If no packets are shown the sender has not sent any weather packets the latest 1 day(s).
| Time | Temp. | Humidity | Pressure | Rain* | Wind** | Luminosity | Snow |
|---|---|---|---|---|---|---|---|
| 1778067050 | 7.22° C | 95% | 1009.5 hPa | 0 mm | - | 35 W/m² | - |
| 1778066444 | 7.22° C | 96% | 1009.9 hPa | 0 mm | - | 21 W/m² | - |
| 1778066142 | 7.22° C | 98% | 1009.5 hPa | 0 mm | - | 20 W/m² | - |
| 1778064627 | 7.22° C | 99% | 1009.5 hPa | 0 mm | - | 1 W/m² | - |
| 1778064325 | 7.22° C | 99% | 1009 hPa | 0 mm | - | 2 W/m² | - |
| 1778063416 | 7.22° C | 99% | 1008.6 hPa | 0 mm | - | 0 W/m² | - |
| 1778063115 | 7.22° C | 99% | 1008.7 hPa | 0 mm | - | 0 W/m² | - |
| 1778062508 | 7.22° C | 99% | 1008.4 hPa | 0 mm | - | 0 W/m² | - |
| 1778062205 | 7.22° C | 99% | 1008.4 hPa | 0 mm | - | 0 W/m² | - |
| 1778061300 | 7.78° C | 99% | 1007.6 hPa | 0 mm | - | 0 W/m² | - |
| 1778060995 | 7.78° C | 99% | 1007.8 hPa | 0 mm | - | 0 W/m² | - |
| 1778060694 | 8.33° C | 99% | 1007.7 hPa | 0 mm | - | 0 W/m² | - |
| 1778060391 | 8.33° C | 99% | 1007.7 hPa | 0 mm | - | 0 W/m² | - |
| 1778060089 | 8.33° C | 99% | 1007.7 hPa | 0 mm | - | 0 W/m² | - |
| 1778058879 | 8.89° C | 99% | 1007.7 hPa | 0 mm | - | 0 W/m² | - |
| 1778058576 | 8.89° C | 99% | 1007.8 hPa | 1.27 mm | - | 0 W/m² | - |
| 1778057970 | 8.89° C | 99% | 1008.1 hPa | 0 mm | - | 0 W/m² | - |
| 1778057667 | 9.44° C | 99% | 1008.2 hPa | 0 mm | - | 0 W/m² | - |
| 1778057363 | 9.44° C | 99% | 1007.9 hPa | 0 mm | - | 0 W/m² | - |
| 1778056756 | 9.44° C | 99% | 1007.6 hPa | 0 mm | - | 0 W/m² | - |
| 1778056454 | 9.44° C | 99% | 1006.9 hPa | 0 mm | - | 0 W/m² | - |
| 1778056151 | 9.44° C | 99% | 1006.9 hPa | 0 mm | - | 0 W/m² | - |
| 1778055848 | 10° C | 99% | 1006.9 hPa | 0 mm | - | 0 W/m² | - |
| 1778054939 | 10° C | 99% | 1006.4 hPa | 0 mm | - | 0 W/m² | - |
| 1778053122 | 10.56° C | 99% | 1006.1 hPa | 0 mm | - | 0 W/m² | - |
* Rain latest hour (hover to see other rain measurements)
** Current wind speed in m/s (hover to see current wind gust speed)